Lid_Strength_Index
8 8 8 8 9 8 9 9 11 9 9 7 5 5 5 4 4 4 4 4 4 4 3 3 2 2 2 1 1 1 3 3 2 1 1 1 0 0 0 -0 0 0 1 1
9 8 8 9 8 8 8 8 8 8 8 5 4 4 5 5 5 5 5 4 4 3 3 3 2 2 2 2 2 2 3 3 2 1 1 1 0 0 -0 0 0 0 0 1
11 9 8 11 8 8 7 7 7 9 7 6 6 6 6 5 5 4 4 4 4 3 3 3 2 2 2 2 2 2 3 3 2 1 1 1 0 0 0 -0 -1 -0 0 0
11 10 15 8 6 6 7 7 6 6 6 6 6 5 5 4 5 5 4 4 4 3 2 2 1 2 2 2 2 2 3 3 3 2 1 1 0 0 -0 -0 -1 -0 0 -0
12 12 10 8 7 7 8 9 7 8 7 6 5 5 5 4 4 4 4 3 3 2 2 2 1 1 2 3 2 2 3 3 2 2 1 0 0 0 -0 -0 -0 0 0 -0
10 15 15 10 8 6 7 11 7 7 7 7 6 9 7 4 3 3 3 3 3 2 2 2 2 1 2 2 2 3 3 2 2 1 1 0 -0 -0 -1 -0 1 1 0 -1
13 14 10 6 6 5 12 11 6 5 6 6 8 7 5 3 3 3 3 2 2 2 2 2 1 1 2 2 3 2 2 2 1 1 -0 -0 -0 -1 -0 0 1 -0 -0 -1
11 13 14 6 6 10 7 5 5 6 5 6 5 4 4 4 3 3 3 3 2 2 2 2 1 2 2 3 2 2 2 2 1 1 0 0 -0 -0 0 1 0 0 0 0
9 9 7 5 6 4 5 6 7 7 6 5 5 5 4 4 4 3 3 3 2 2 2 2 2 1 2 2 2 2 2 1 1 -0 0 -0 1 1 1 0 1 1 1 1
8 6 6 6 4 4 4 4 5 5 5 5 5 5 4 4 4 3 3 3 2 2 3 3 2 2 2 2 3 2 2 2 1 0 1 1 1 1 1 1 1 1 1 1
8 6 5 5 4 4 4 5 5 5 5 5 5 4 3 4 4 3 3 4 3 3 3 3 2 2 2 3 2 2 2 2 1 1 1 1 1 1 1 -0 2 1 0 0
9 5 5 5 3 4 4 4 5 5 5 5 4 3 3 4 4 3 3 4 3 2 3 3 2 3 2 2 1 2 2 1 1 2 2 2 1 1 10 9 9 9 8 6
5 3 4 3 3 3 4 4 4 4 4 5 4 3 4 4 4 4 3 3 3 4 3 3 3 3 2 1 1 1 1 1 2 3 3 2 1 1 3 6 9 9 9 9
3 4 5 4 5 3 3 3 3 3 3 4 3 3 3 4 3 4 3 3 2 3 3 3 3 3 2 1 0 0 0 5 2 2 2 1 1 1 1 2 2 4 8 7
4 3 4 3 3 3 3 3 4 4 3 3 3 3 3 4 4 3 3 3 3 3 4 3 3 2 1 -0 0 1 2 2 2 1 1 2 1 1 1 1 2 3 4 6
3 4 4 4 4 4 3 3 4 4 4 4 4 4 3 3 3 3 4 3 4 4 4 3 2 1 1 0 0 1 2 5 4 1 2 1 1 2 2 2 2 2 2 3
4 5 4 4 4 4 4 3 3 4 4 5 5 3 3 3 4 4 5 4 3 3 3 3 2 2 1 0 1 2 2 2 5 2 2 1 1 1 1 2 2 2 3 6
2 3 2 3 3 4 3 3 3 3 4 4 5 3 3 4 5 6 5 4 4 3 3 3 2 2 1 0 1 2 2 2 2 2 2 1 1 1 1 2 2 3 4 5
3 3 3 3 3 3 3 3 3 2 2 4 3 4 3 5 6 6 5 6 5 5 4 4 7 4 1 2 2 2 2 2 2 2 1 4 2 2 2 2 3 4 4 4
3 3 3 3 3 3 3 2 2 2 2 3 3 5 6 7 6 7 6 6 4 4 4 5 4 2 1 3 6 2 2 2 2 2 1 2 2 2 3 5 4 4 4 4
4 4 4 3 3 3 2 2 2 3 3 3 5 5 6 6 6 6 7 7 5 4 4 7 3 2 2 3 3 2 1 1 1 2 2 2 2 3 3 4 4 4 4 4
4 4 4 4 4 3 2 2 2 3 3 3 3 5 6 6 5 6 6 6 6 9 6 4 3 5 3 8 2 2 2 1 2 2 2 2 2 3 4 4 4 4 4 4
5 4 4 4 4 3 2 2 2 3 3 3 4 4 4 5 5 7 8 6 6 7 4 3 9 11 11 2 2 2 2 2 2 2 2 3 3 4 4 4 4 4 5 5
4 3 3 3 3 3 3 2 2 2 3 3 3 3 3 5 5 5 6 9 10 8 4 6 8 11 11 1 2 2 2 2 2 3 3 7 4 4 4 4 4 5 5 7
4 4 3 4 3 3 3 3 3 3 3 4 3 3 3 4 6 5 5 5 11 5 4 13 12 11 2 2 2 2 2 3 3 4 4 4 4 4 4 4 5 6 7 7
4 4 4 3 3 3 3 3 4 4 4 4 4 4 4 4 5 4 3 4 2 6 3 3 2 2 2 2 2 3 3 4 4 4 4 4 4 4 5 6 7 7 7 7
4 6 3 3 3 3 3 4 4 5 4 4 4 4 4 3 3 3 4 2 3 2 2 2 2 4 2 2 3 3 3 4 6 4 4 4 5 5 6 7 7 7 7 7